This is the latest recevied weather packets stored in our database for station/object DM4XI-13. If no packets are shown the sender has not sent any weather packets the latest 10 day(s).
| Time | Temp. | Humidity | Pressure | Rain* | Wind** | Luminosity | Snow |
|---|---|---|---|---|---|---|---|
| 1778128747 | 10° C | 91% | 1008.3 hPa | 0 mm | 0.89 m/s, 184° | 39 W/m² | - |
| 1778128687 | 10° C | 91% | 1008.3 hPa | 0 mm | 0.89 m/s, 180° | 37 W/m² | - |
| 1778128625 | 10° C | 92% | 1008.2 hPa | 0 mm | 1.34 m/s, 155° | 34 W/m² | - |
| 1778128564 | 10° C | 92% | 1008.2 hPa | 0 mm | 1.34 m/s, 198° | 33 W/m² | - |
| 1778128504 | 10° C | 92% | 1008.3 hPa | 0 mm | 0 m/s | 34 W/m² | - |
| 1778128442 | 10° C | 92% | 1008.2 hPa | 0 mm | 0.89 m/s, 201° | 36 W/m² | - |
| 1778128381 | 10° C | 93% | 1008.3 hPa | 0 mm | 0.45 m/s, 182° | 38 W/m² | - |
| 1778128321 | 10° C | 93% | 1008.2 hPa | 0 mm | 0.89 m/s, 167° | 36 W/m² | - |
| 1778128259 | 10° C | 93% | 1008.1 hPa | 0 mm | 0.45 m/s, 178° | 33 W/m² | - |
| 1778128199 | 10° C | 93% | 1008.1 hPa | 0 mm | 0.89 m/s, 192° | 29 W/m² | - |
| 1778128137 | 10° C | 93% | 1008.3 hPa | 0 mm | 0.89 m/s, 187° | 27 W/m² | - |
| 1778128077 | 10° C | 93% | 1008.2 hPa | 0 mm | 0.45 m/s, 185° | 25 W/m² | - |
| 1778128015 | 10° C | 93% | 1008.1 hPa | 0 mm | 0 m/s | 23 W/m² | - |
| 1778127954 | 10° C | 93% | 1008.2 hPa | 0 mm | 0.45 m/s, 189° | 21 W/m² | - |
| 1778127893 | 9.44° C | 93% | 1008.1 hPa | 0 mm | 0.45 m/s, 182° | 21 W/m² | - |
| 1778127832 | 9.44° C | 93% | 1008.1 hPa | 0 mm | 0.45 m/s, 194° | 19 W/m² | - |
| 1778127771 | 9.44° C | 93% | 1008.2 hPa | 0 mm | 1.34 m/s, 207° | 18 W/m² | - |
| 1778127711 | 9.44° C | 94% | 1008.2 hPa | 0 mm | 0.45 m/s, 257° | 17 W/m² | - |
| 1778127650 | 9.44° C | 94% | 1008.2 hPa | 0 mm | 0.45 m/s, 189° | 17 W/m² | - |
| 1778127588 | 9.44° C | 93% | 1008 hPa | 0 mm | 0 m/s | 16 W/m² | - |
| 1778127527 | 9.44° C | 93% | 1008.2 hPa | 0 mm | 0 m/s | 15 W/m² | - |
| 1778127467 | 9.44° C | 93% | 1008.2 hPa | 0 mm | 1.34 m/s, 173° | 14 W/m² | - |
| 1778127406 | 9.44° C | 93% | 1008.1 hPa | 0 mm | 0 m/s | 13 W/m² | - |
| 1778127344 | 9.44° C | 93% | 1008.2 hPa | 0 mm | 0.89 m/s, 195° | 11 W/m² | - |
| 1778127284 | 9.44° C | 93% | 1008 hPa | 0 mm | 1.34 m/s, 180° | 10 W/m² | - |
* Rain latest hour (hover to see other rain measurements)
** Current wind speed in m/s (hover to see current wind gust speed)